Dewpoint
66 66 66 66 66 65 65 65 65 64 64 64 64 64 64 64 65 65 65 65 65 65 65 65 65 66 66 66 66 66 66 66 66 66 66 65 65 65 64 64 63 63 62 62 63 62 62 61 61 61 61 61 61 60 60 60 60 59 58 57 55 52 48 47 46 46 42 45 42 37 40 41 41 40 39 39 44 47 43 40 41 44 46 46 46
65 67 66 66 66 65 65 65 65 65 64 64 64 64 64 64 65 65 65 66 66 65 65 65 65 66 66 66 66 66 66 66 66 66 65 65 64 64 64 64 64 63 62 62 62 62 61 61 61 61 61 61 60 61 61 60 60 59 59 57 56 55 52 49 47 45 39 38 38 40 40 41 39 40 39 40 41 45 39 37 40 42 44 44 44
65 66 67 66 66 66 65 65 65 64 64 64 64 64 64 64 65 65 66 66 66 66 65 65 66 66 66 66 66 66 66 66 66 66 66 65 64 64 64 64 64 63 62 62 62 62 61 61 61 60 60 60 60 60 60 60 60 59 58 57 55 55 53 49 45 41 38 38 39 38 39 39 39 38 39 40 41 42 38 36 40 46 46 44 43
64 66 66 66 66 66 65 65 65 64 64 64 64 64 65 65 65 65 66 66 66 66 66 66 66 66 66 66 66 66 66 66 65 66 66 65 65 64 64 64 64 63 63 63 62 62 61 61 61 60 60 60 60 59 58 59 59 58 57 55 53 53 53 50 45 43 40 38 39 36 38 38 38 38 38 40 40 40 37 36 42 44 45 45 42
66 66 66 66 66 66 65 65 64 64 64 64 64 64 65 65 65 65 66 66 66 66 66 66 66 66 66 66 66 66 66 66 65 65 65 65 65 64 64 64 63 63 63 63 64 62 62 61 61 60 59 59 59 58 56 55 56 55 55 53 52 52 52 51 47 44 40 37 37 38 38 37 39 37 39 38 39 38 37 36 39 42 43 44 43
66 66 66 66 66 65 65 65 65 64 64 64 64 64 65 65 65 65 66 66 66 66 66 66 66 66 66 66 66 66 66 66 65 65 65 65 65 64 64 64 63 63 63 62 62 62 61 61 60 59 58 58 58 57 55 54 53 53 52 52 52 51 51 50 47 44 40 37 36 38 37 37 35 37 38 38 38 37 35 36 37 40 41 41 42
62 66 66 66 65 65 65 65 65 64 64 64 64 64 65 65 65 65 65 66 66 66 66 66 66 66 66 66 66 66 66 66 65 65 65 65 65 64 64 63 63 63 62 61 61 61 60 60 59 58 58 57 57 56 54 53 53 52 52 51 50 49 50 49 47 44 42 38 37 36 36 39 35 34 36 38 37 36 35 35 35 39 40 39 40
60 60 60 66 65 65 65 65 65 65 65 65 65 64 65 65 65 66 66 66 66 66 66 66 66 66 66 66 66 66 66 65 65 65 65 64 64 64 63 63 62 62 61 60 60 60 59 59 58 58 57 57 57 56 55 53 52 52 50 50 49 48 49 48 47 44 43 40 38 37 37 37 37 41 40 37 36 35 36 36 34 35 39 40 39
60 60 60 60 64 66 65 65 65 65 65 65 65 65 65 65 65 65 65 66 66 66 66 66 66 66 66 66 66 66 65 65 65 65 64 64 64 63 63 62 62 61 59 59 58 58 58 57 57 57 57 58 57 55 55 55 52 50 48 49 48 47 47 46 46 45 44 42 40 39 37 37 36 36 35 35 34 33 35 39 34 36 39 40 40
60 60 60 60 61 63 66 65 65 65 65 65 65 65 65 65 65 65 65 65 66 66 66 66 66 66 66 66 65 65 65 65 62 59 59 63 63 63 62 62 61 60 59 57 57 57 57 56 56 57 56 57 55 52 50 51 52 51 48 48 47 46 46 45 45 45 44 42 40 39 38 37 36 35 35 34 34 37 37 37 33 36 38 37 38
59 60 59 60 61 62 62 65 66 66 66 66 66 66 66 66 66 66 65 65 65 66 66 66 66 65 65 65 65 65 65 64 57 53 53 55 61 62 61 61 60 59 58 56 55 55 55 55 55 56 56 56 54 50 49 48 47 47 47 49 49 46 45 44 44 45 44 43 42 38 38 37 36 35 34 35 37 35 35 35 35 36 34 32 32
61 61 60 60 61 63 64 63 65 66 66 66 65 64 64 63 64 65 66 65 65 65 65 65 65 65 65 65 65 65 64 59 52 52 51 51 55 61 61 60 59 59 58 57 55 53 53 53 53 54 54 54 53 52 50 47 45 45 44 45 45 45 45 44 44 44 44 43 41 38 37 37 36 36 35 37 37 37 36 36 36 35 35 34 34
59 58 58 59 60 63 64 64 64 65 65 65 64 62 63 63 63 63 64 64 64 64 65 65 65 65 65 64 64 64 64 56 51 50 50 50 50 57 61 60 59 58 57 56 55 53 52 52 52 52 53 55 54 50 49 48 46 46 46 46 45 43 40 40 42 44 44 43 42 40 37 37 36 36 36 38 39 37 38 36 36 36 35 34 35
59 59 59 59 59 59 60 61 63 64 65 64 63 63 63 63 63 64 63 62 61 61 62 63 65 65 64 64 64 64 64 57 49 49 50 49 49 53 60 59 58 57 56 55 54 52 51 51 51 51 50 52 50 47 46 46 45 46 46 46 47 48 44 40 40 41 43 43 42 40 39 38 37 37 39 40 38 37 37 36 37 36 35 35 35
58 59 59 59 59 59 59 59 61 62 63 64 63 63 63 63 62 62 62 62 62 62 62 62 62 63 64 64 64 64 64 54 48 48 49 48 48 51 59 58 57 56 55 54 53 51 50 50 50 50 48 49 48 46 45 45 45 45 45 44 44 44 44 44 43 43 44 43 41 41 40 40 39 39 40 41 39 38 38 37 37 36 37 38 36
56 56 56 58 57 58 59 59 59 59 60 60 62 63 62 60 61 61 61 62 62 62 62 63 63 63 63 63 63 63 63 51 47 47 48 47 47 56 59 57 56 55 54 53 52 50 50 49 49 48 47 48 47 43 44 44 44 43 43 42 40 40 42 47 42 43 44 43 42 41 42 42 41 41 42 41 40 41 43 40 39 38 36 35 36
55 56 56 58 58 59 59 59 59 59 59 59 58 58 59 59 59 59 60 61 61 61 62 62 63 63 62 62 63 63 63 52 46 47 47 47 48 58 58 56 55 54 53 52 51 50 49 48 48 47 46 46 44 40 41 44 43 43 42 41 41 40 40 41 40 42 43 43 42 42 42 42 40 40 40 40 40 41 39 38 36 37 36 35 35
56 56 57 58 58 58 58 58 58 58 59 59 57 58 59 59 59 59 59 60 61 61 62 62 63 63 62 62 63 63 62 54 45 46 46 46 51 58 58 56 55 54 53 52 51 49 49 52 50 46 46 45 41 39 39 43 42 42 41 40 39 39 39 40 40 39 39 39 40 39 39 40 40 40 40 39 39 40 38 36 37 36 36 36 34
55 55 56 58 58 58 58 58 59 59 59 59 58 59 59 61 61 61 61 61 61 61 61 61 62 63 63 63 60 61 62 56 45 46 46 46 50 58 57 56 55 53 52 51 50 49 49 51 51 48 46 44 39 38 38 42 42 42 41 40 39 38 39 40 39 39 38 39 38 40 39 41 42 41 42 39 39 42 39 38 37 36 36 36 35
54 55 55 57 57 58 58 58 58 59 59 59 60 61 61 60 60 61 61 61 61 61 61 61 61 62 62 62 62 61 62 60 50 45 46 46 47 57 57 55 54 53 52 51 50 48 48 49 48 43 41 40 38 37 38 39 41 41 41 40 39 38 39 40 40 40 40 40 39 39 40 40 41 41 40 39 41 42 38 38 37 37 36 37 37
54 54 55 56 58 57 58 58 58 59 59 60 61 61 61 61 60 61 61 61 61 61 61 61 61 62 62 62 62 62 62 60 53 45 45 46 46 52 57 55 55 53 52 51 50 49 48 48 48 44 40 39 38 37 37 38 40 41 41 40 40 40 39 39 41 44 40 40 40 39 39 39 40 39 39 39 40 40 39 39 38 37 36 37 37
55 54 55 56 57 58 58 58 58 59 59 60 60 60 60 61 61 61 61 61 61 60 61 60 61 61 62 62 62 62 61 56 57 46 45 45 46 48 56 55 54 53 52 51 50 49 48 48 48 45 39 38 38 37 37 37 37 42 40 38 37 37 38 39 40 40 39 39 39 38 38 38 38 37 38 39 40 40 38 39 38 37 37 37 37
55 55 55 55 56 57 57 57 58 59 59 60 60 59 60 60 60 60 60 60 60 60 60 61 61 61 61 62 63 63 62 57 51 50 45 45 45 46 49 52 47 53 52 51 50 49 49 48 48 45 39 38 37 37 36 36 38 39 37 36 37 37 39 38 38 38 38 38 38 37 37 37 37 37 37 37 37 37 37 37 38 38 39 38 38
55 55 55 55 55 57 57 58 58 59 60 60 60 60 59 60 60 60 60 59 59 60 61 61 61 60 61 62 63 62 60 58 50 48 48 44 45 45 46 47 46 51 52 52 51 50 49 48 47 42 39 38 37 36 36 36 36 36 36 36 36 38 40 38 37 37 37 37 37 37 37 37 37 37 37 37 36 36 36 36 36 38 39 39 38
54 54 55 55 55 56 57 58 58 59 60 60 59 59 59 59 59 60 60 60 60 60 60 61 61 61 61 61 62 61 59 57 54 48 46 45 44 44 45 45 44 45 51 52 50 50 46 43 42 41 39 38 37 36 36 36 35 35 36 36 40 40 40 38 37 36 35 35 36 36 36 36 36 37 37 37 37 37 36 36 36 35 36 36 37
53 53 54 54 54 56 57 58 58 59 59 60 60 60 60 59 59 60 60 61 61 61 61 61 61 61 61 62 62 61 58 56 54 52 47 47 45 44 44 44 45 45 48 50 46 44 42 41 41 40 39 39 39 38 37 37 35 36 37 38 40 40 40 39 37 36 34 35 35 35 35 35 35 35 35 36 36 36 36 36 36 36 36 36 35
53 53 53 54 54 55 58 58 59 59 59 60 60 59 60 60 60 59 60 61 61 61 61 60 59 57 57 58 58 58 56 55 54 53 50 50 49 48 47 47 44 44 47 49 45 46 42 43 42 40 40 38 38 38 38 37 37 39 40 41 40 40 41 40 38 37 36 35 35 35 35 35 35 36 36 35 34 34 35 35 36 36 38 37 35
54 54 53 53 54 54 57 52 56 59 59 59 59 59 60 60 60 60 60 61 61 61 60 59 58 58 58 58 59 59 58 56 54 53 51 50 50 51 50 50 49 48 49 50 47 46 44 42 40 42 42 40 39 38 38 39 38 38 40 40 40 40 42 42 41 39 38 38 37 36 36 36 35 35 36 37 34 34 36 36 37 38 39 38 36
54 54 54 53 53 53 55 57 57 59 59 59 60 59 59 60 60 61 61 62 62 61 61 60 59 59 58 58 58 59 58 57 55 49 51 47 48 51 50 51 51 50 48 44 47 45 44 43 42 41 41 40 38 38 38 38 38 38 40 40 40 39 40 41 41 40 39 39 38 36 36 35 35 35 35 36 36 36 39 38 39 39 38 39 38
55 55 54 54 53 53 54 55 57 58 59 59 59 60 53 53 57 61 61 55 53 53 54 59 60 59 59 59 60 60 59 59 51 48 46 44 45 46 47 47 47 48 44 42 44 45 44 43 42 41 41 40 39 38 38 38 38 37 38 38 38 38 39 40 40 40 39 39 38 36 36 35 34 34 34 34 34 35 37 38 39 39 38 38 38
55 55 55 55 53 53 54 55 56 58 59 59 59 59 60 58 49 50 53 54 51 50 49 51 51 53 58 60 59 53 53 52 47 47 46 44 44 44 45 45 44 43 41 43 47 44 41 42 41 41 40 41 40 39 38 37 36 36 37 37 37 37 36 38 38 37 36 37 37 37 35 34 33 33 33 33 34 33 34 37 38 39 38 38 38
55 55 56 56 55 53 54 55 55 57 58 59 59 59 59 60 60 51 48 49 48 47 47 48 49 49 50 54 58 59 52 48 46 46 45 44 44 43 44 43 43 41 41 43 43 42 43 42 41 41 41 40 38 38 38 39 37 36 36 36 35 35 36 36 36 36 36 36 35 34 34 34 34 32 32 32 31 32 32 35 36 37 38 38 38
56 55 55 55 54 53 53 55 54 56 57 58 59 59 59 59 60 60 54 46 47 49 49 49 49 48 49 50 51 53 51 47 45 45 44 44 43 43 43 43 42 42 41 45 44 42 44 45 44 43 43 40 40 41 39 39 39 37 36 36 35 34 35 36 35 35 34 35 34 34 33 33 32 32 31 31 30 30 31 32 35 36 36 36 35
55 55 56 55 55 54 54 55 55 56 57 58 59 59 59 59 60 60 60 57 52 48 46 46 48 47 46 48 50 49 47 45 44 44 44 43 43 43 42 43 40 40 42 46 48 45 45 46 45 43 41 41 42 40 39 40 38 36 36 36 35 35 34 35 35 34 33 33 33 33 32 32 32 32 31 31 31 30 31 31 33 34 34 35 34
52 46 42 47 54 55 55 55 56 56 56 57 58 58 58 58 58 58 59 58 57 58 58 56 47 45 51 48 47 48 48 45 44 43 43 43 43 43 42 44 42 42 44 48 48 47 45 44 44 43 42 41 40 39 40 39 37 36 36 36 35 35 34 34 33 34 33 33 32 32 32 32 32 32 32 32 32 32 32 32 32 33 33 34 34
52 51 51 50 52 53 54 53 54 55 56 57 58 58 57 58 58 57 56 57 57 58 57 59 58 47 45 47 47 47 48 46 44 43 43 43 43 42 45 44 45 45 45 47 47 47 46 45 44 43 43 42 41 39 39 39 38 36 36 36 35 35 35 34 34 33 34 33 32 32 32 31 32 31 31 32 33 33 32 32 33 33 33 33 33
51 50 49 48 50 53 55 55 55 55 51 51 54 56 56 57 55 58 57 57 56 57 59 59 57 52 47 48 47 45 45 45 43 43 43 43 41 45 49 47 47 46 45 47 47 46 46 45 44 43 43 42 42 41 42 42 43 38 38 37 36 36 35 35 35 34 34 34 33 32 31 31 31 32 31 31 31 32 32 32 32 32 32 32 31
51 49 48 46 49 52 54 55 56 48 52 54 55 56 55 57 56 56 56 57 57 55 56 57 52 57 55 54 51 49 47 41 41 41 41 40 40 48 50 48 47 46 45 46 46 46 46 46 45 44 42 42 41 41 40 39 40 41 37 38 36 36 36 35 35 36 35 35 34 33 32 31 31 31 31 31 31 32 32 32 31 31 31 31 31
50 44 40 39 42 49 51 51 51 53 55 54 55 55 55 55 56 56 57 57 55 56 55 57 56 55 57 56 52 49 44 44 44 44 43 43 44 48 51 50 49 48 47 47 46 45 46 46 45 44 43 42 41 40 39 40 43 44 41 37 37 37 36 36 36 36 35 35 35 34 33 32 31 31 31 31 31 32 33 32 32 31 31 30 30
50 49 44 40 45 46 47 47 49 50 49 53 55 55 54 53 55 55 56 56 56 55 56 56 55 55 55 53 51 49 51 48 46 46 44 43 44 46 50 50 49 48 48 47 47 46 46 46 46 44 43 42 41 43 44 41 40 40 40 38 37 37 37 37 36 36 36 36 35 35 34 33 32 31 31 31 31 32 33 33 32 31 31 30 30
50 49 43 42 42 46 47 46 48 48 49 49 50 51 53 52 53 51 54 54 53 53 53 54 56 56 54 48 46 46 53 52 50 48 46 45 45 46 48 50 50 49 48 47 47 47 47 47 46 45 43 42 41 42 43 44 43 43 42 39 40 37 38 38 37 36 36 36 36 35 35 34 33 32 32 32 33 33 32 33 33 32 32 31 30
50 48 48 47 46 47 47 46 46 46 47 46 49 49 48 49 52 52 51 51 48 51 53 53 53 52 49 44 44 43 51 53 51 49 48 47 46 47 47 50 51 51 50 50 49 48 47 46 46 45 44 43 42 43 45 45 45 43 41 39 39 38 38 38 38 37 37 36 36 36 36 35 34 33 33 34 33 33 33 33 33 33 32 32 31
48 48 48 46 47 47 46 48 48 48 47 47 48 44 46 49 50 49 49 49 49 50 51 50 51 49 46 40 41 40 47 48 45 48 47 47 47 47 47 49 51 51 51 51 51 50 49 47 47 47 45 46 47 45 45 45 44 43 43 41 40 39 38 38 38 38 37 37 36 36 35 35 35 34 34 34 34 33 33 33 33 33 33 33 32
49 48 47 46 47 47 46 48 47 46 46 44 44 45 46 48 49 49 49 48 48 48 49 50 50 49 46 40 39 42 47 47 47 47 47 46 47 47 48 48 49 50 51 51 51 51 50 49 48 49 49 49 49 48 47 48 47 45 43 43 39 39 40 38 38 38 38 37 37 36 36 35 35 35 34 34 34 34 34 34 33 33 33 33 33
49 48 48 48 47 47 47 47 46 47 44 46 47 48 46 48 48 47 47 48 46 47 47 47 47 47 45 43 43 44 46 47 45 45 46 47 47 47 48 48 49 50 50 50 50 50 50 49 48 48 47 49 50 49 49 49 49 48 46 45 41 39 40 40 41 40 39 38 38 36 36 36 35 35 35 35 34 34 34 34 33 33 33 33 32
46 47 46 47 47 46 46 47 45 47 47 46 46 47 47 47 47 46 46 47 46 46 46 45 45 45 44 45 44 42 45 47 47 46 45 45 46 47 47 47 48 48 49 48 49 49 49 49 47 46 46 48 50 50 49 49 49 49 48 48 47 45 46 45 42 39 39 38 38 37 36 36 36 35 34 35 34 34 34 34 33 33 33 33 33
45 45 45 45 46 46 46 45 46 45 47 46 46 46 46 46 46 45 43 45 45 44 46 46 45 45 45 45 44 44 44 45 47 46 45 45 46 47 46 47 47 48 48 48 48 48 48 47 47 47 46 48 49 50 50 50 49 49 49 48 48 47 47 46 43 41 40 40 39 38 37 36 35 35 34 34 34 34 34 34 33 33 33 33 33
43 43 44 43 45 45 47 47 46 42 45 45 45 45 44 45 46 45 45 45 45 45 45 45 45 45 44 44 44 44 44 45 46 46 44 44 45 45 45 46 45 47 47 47 48 47 47 47 48 47 45 45 46 49 50 50 49 49 49 49 49 48 47 43 45 41 41 39 38 38 37 36 35 35 34 34 34 34 34 33 33 33 33 33 33
41 42 43 43 43 44 45 46 46 46 46 45 44 45 44 45 45 46 45 46 45 45 46 45 45 44 44 44 44 44 45 44 46 46 44 44 44 45 45 45 44 46 46 46 47 47 47 48 47 47 47 46 47 48 50 50 49 49 48 48 47 42 41 40 42 43 40 39 37 37 36 36 35 35 34 34 34 34 34 34 33 33 33 33 33
39 40 41 41 42 43 44 44 46 47 45 45 45 45 44 44 45 44 45 45 45 45 46 45 45 45 45 44 43 44 45 45 45 46 46 44 44 45 45 45 45 46 46 46 47 47 47 48 48 47 47 47 48 49 49 49 49 49 48 48 43 41 40 39 39 39 39 38 38 37 36 36 35 35 34 34 34 34 33 33 33 32 32 32 32
35 37 39 39 40 41 42 43 44 45 46 46 46 45 45 45 45 44 45 45 44 44 44 45 45 45 45 45 43 44 44 45 45 46 46 45 44 44 44 45 44 45 45 46 46 47 47 48 47 46 46 44 46 48 49 49 49 49 45 42 40 39 38 38 41 37 37 38 40 39 37 36 35 34 34 33 33 33 33 32 32 32 32 32 32